Updated18/12/2017 07:00 
 

GeoURL
free counters
Scottish Weather Network UK Weather Network Cumulus Top Weather Sites

Peebles Weather - Advisories

Raw Data, Raw Data Expanded

Ignore low humidity and Dew Point values. Something wrong with the sensor.
Daytime temperatures are in direct sunlight so may be higher than official air temperature values.

Warnings and solar data not updating. Currently under investigation. (27th Oct 2016)

2017/12/18 06:50 EGPH 180650Z 26004KT 240V300 CAVOK 01/00 Q1025
-3.3°C 0.0 mm 0.0 mm 2.4 mm 0.0 mph 0.0 mph 1023.1 hPa 10% X-Ray Solar Flare Level
Planetary K-Index
Planetary K-Index History
Station Warn Rain Snow Flood Wind Ltng Heat Cold Glob Moon Temp Rain 1h Rain Mon Rain 24h Wind 10m Gust Pressure Hum Proton Levels

0.712 m New moon Uncomfortably Cold F0-S F:71 A:24 Kp:4 SSN:0

This Weather Widget is provided by the Met Office

METEOalarm.eu Weather warnings: Lothian & Borders

 No special awareness required

Warning data courtesy of and Copyright © EUMETNET-METEOalarm (http://www.meteoalarm.eu/).
Used with permission.
Time delays between this website and the www.meteoalarm.eu website are possible, for the most up to date information about alert levels as published by the participating National Meteorological Services please use www.meteoalarm.eu

 

XHTML 1.1 | CSS